Regional Weather Roundup
Issued by NWS Goodland, KS

Home | Current Version | Previous Version | Text Only | Print | Product List | Glossary Off
Versions: 1 2 3 4 5 6 7 8 9 10 11 12 13 14 15 16 17 18 19 20 21 22 23 24 25 26 27 28 29 30 31 32 33 34 35 36 37 38 39 40 41 42 43 44 45 46 47 48 49 50

000
ASUS43 KGLD 272208
RWRGLD

GOODLAND FORECAST AREA HOURLY WEATHER ROUNDUP
NATIONAL WEATHER SERVICE GOODLAND KS
400 PM MDT WED AUG 27 2014

...OFFICIAL OBSERVATIONS...

CITY           SKY/WX    TMP DP  RH WIND       PRES   REMARKS
GOODLAND KS    PTSUNNY   78  65  63 S12       30.03F
HILL CITY KS   LGT RAIN  70  69  97 E10       30.01F FOG
IMPERIAL NEB   MOSUNNY   80  64  58 SE16      30.01F
MCCOOK NEB     CLOUDY    74  68  81 SE17G25   30.03F
AKRON CO       CLOUDY    76  59  55 S9        30.05F
BURLINGTON CO  PTSUNNY   79  64  60 S16G22    30.04F
LIMON CO       PTSUNNY   78  53  41 SE6       30.09F
$$

...UNOFFICIAL OBSERVATIONS...

CITY           SKY/WX    TMP DP  RH WIND       PRES   REMARKS
COLBY KS       SUNNY     81  70  69 S6        30.02F
GOVE KS          N/A     73  32  22 CALM        N/A
NORTON KS      CLOUDY    70  64  83 E12       30.03F
SHARON SPRINGS   N/A     81  67  61 S9          N/A
WAKEENEY KS      N/A     78  65  63 MISG        N/A
KIT CARSON CO    N/A     81  62  52 MISG        N/A
YUMA CO          N/A     80  63  56 CALM        N/A
$$



USA.gov is the U.S. government's official web portal to all federal, state and local government web resources and services.